Time,TemperatureF,DewpointF,PressureIn,WindDirection,WindDirectionDegrees,WindSpeedMPH,WindSpeedGustMPH,Humidity,HourlyPrecipIn,Conditions,Clouds,dailyrainin,SoftwareType,DateUTC
2013-01-16 00:12:00,34.1,30.0,30.09,ESE,120,6.0,9.0,83,0.00,,,0.00,weatherlink.com 1.10,2013-01-16 10:12:00,
2013-01-16 00:27:00,34.2,30.0,30.09,East,95,2.0,7.0,83,0.00,,,0.00,weatherlink.com 1.10,2013-01-16 10:27:00,
2013-01-16 00:42:00,34.3,29.0,30.08,ESE,103,3.0,7.0,82,0.00,,,0.00,weatherlink.com 1.10,2013-01-16 10:42:00,
2013-01-16 00:57:00,35.0,30.0,30.07,SE,126,4.0,9.0,82,0.00,,,0.00,weatherlink.com 1.10,2013-01-16 10:57:00,
2013-01-16 01:12:00,35.0,30.0,30.07,East,90,0.0,5.0,81,0.00,,,0.00,weatherlink.com 1.10,2013-01-16 11:12:00,
2013-01-16 01:27:00,34.7,30.0,30.06,SE,131,3.0,12.0,83,0.00,,,0.00,weatherlink.com 1.10,2013-01-16 11:27:00,
2013-01-16 01:42:00,35.5,31.0,30.05,ESE,111,3.0,10.0,82,0.00,,,0.00,weatherlink.com 1.10,2013-01-16 11:42:00,
2013-01-16 01:57:00,35.9,31.0,30.04,ESE,117,5.0,11.0,82,0.00,,,0.00,weatherlink.com 1.10,2013-01-16 11:57:00,
2013-01-16 02:12:00,35.5,31.0,30.04,ESE,122,6.0,9.0,82,0.00,,,0.00,weatherlink.com 1.10,2013-01-16 12:12:00,
2013-01-16 02:27:00,35.4,31.0,30.03,ESE,111,5.0,11.0,84,0.00,,,0.00,weatherlink.com 1.10,2013-01-16 12:27:00,
2013-01-16 02:42:00,35.7,32.0,30.02,East,96,10.0,14.0,86,0.00,,,0.00,weatherlink.com 1.10,2013-01-16 12:42:00,
2013-01-16 02:57:00,35.5,32.0,30.01,East,99,4.0,15.0,87,0.00,,,0.00,weatherlink.com 1.10,2013-01-16 12:57:00,
2013-01-16 03:12:00,35.5,32.0,30.00,ESE,109,5.0,13.0,88,0.00,,,0.00,weatherlink.com 1.10,2013-01-16 13:12:00,
2013-01-16 03:27:00,35.4,33.0,29.99,ESE,120,5.0,13.0,89,0.00,,,0.00,weatherlink.com 1.10,2013-01-16 13:27:00,
2013-01-16 03:42:00,35.5,33.0,29.98,East,80,10.0,14.0,89,0.00,,,0.00,weatherlink.com 1.10,2013-01-16 13:42:00,
2013-01-16 03:57:00,35.8,33.0,29.98,ESE,113,8.0,11.0,89,0.00,,,0.00,weatherlink.com 1.10,2013-01-16 13:57:00,
2013-01-16 04:12:00,36.1,34.0,29.97,ESE,115,6.0,13.0,90,0.00,,,0.00,weatherlink.com 1.10,2013-01-16 14:12:00,
2013-01-16 04:27:00,36.0,33.0,29.96,ESE,117,6.0,14.0,90,0.00,,,0.00,weatherlink.com 1.10,2013-01-16 14:27:00,
2013-01-16 04:42:00,36.0,33.0,29.95,ESE,113,5.0,12.0,90,0.00,,,0.00,weatherlink.com 1.10,2013-01-16 14:42:00,
2013-01-16 04:57:00,36.5,34.0,29.95,SE,124,7.0,10.0,90,0.00,,,0.00,weatherlink.com 1.10,2013-01-16 14:57:00,
2013-01-16 05:12:00,36.4,34.0,29.94,ESE,113,5.0,11.0,90,0.00,,,0.00,weatherlink.com 1.10,2013-01-16 15:12:00,
2013-01-16 05:27:00,36.6,34.0,29.94,SE,126,4.0,11.0,89,0.00,,,0.00,weatherlink.com 1.10,2013-01-16 15:27:00,
2013-01-16 05:42:00,36.1,34.0,29.93,SE,124,7.0,8.0,90,0.00,,,0.00,weatherlink.com 1.10,2013-01-16 15:42:00,
2013-01-16 05:57:00,36.2,34.0,29.93,SE,143,6.0,8.0,90,0.00,,,0.00,weatherlink.com 1.10,2013-01-16 15:57:00,
2013-01-16 06:12:00,35.4,33.0,29.93,WSW,247,8.0,14.0,90,0.00,,,0.00,weatherlink.com 1.10,2013-01-16 16:12:00,
2013-01-16 06:27:00,33.5,32.0,29.93,NNW,332,4.0,12.0,93,0.00,,,0.00,weatherlink.com 1.10,2013-01-16 16:27:00,
2013-01-16 06:42:00,32.5,31.0,29.93,NNW,343,7.0,7.0,94,0.00,,,0.00,weatherlink.com 1.10,2013-01-16 16:42:00,
2013-01-16 06:57:00,32.3,31.0,29.93,NW,320,2.0,6.0,94,0.00,,,0.00,weatherlink.com 1.10,2013-01-16 16:57:00,
2013-01-16 07:12:00,32.1,31.0,29.93,NNW,340,2.0,6.0,95,0.00,,,0.00,weatherlink.com 1.10,2013-01-16 17:12:00,
2013-01-16 07:27:00,32.2,31.0,29.93,NW,309,1.0,5.0,95,0.00,,,0.00,weatherlink.com 1.10,2013-01-16 17:27:00,
2013-01-16 07:42:00,32.0,31.0,29.93,West,273,4.0,6.0,95,0.00,,,0.00,weatherlink.com 1.10,2013-01-16 17:42:00,
2013-01-16 07:57:00,31.9,31.0,29.93,WNW,284,0.0,5.0,95,0.00,,,0.00,weatherlink.com 1.10,2013-01-16 17:57:00,
2013-01-16 08:12:00,31.6,30.0,29.92,WNW,284,0.0,0.0,95,0.00,,,0.00,weatherlink.com 1.10,2013-01-16 18:12:00,
2013-01-16 08:27:00,31.5,31.0,29.92,WNW,284,0.0,0.0,96,0.00,,,0.00,weatherlink.com 1.10,2013-01-16 18:27:00,
2013-01-16 08:43:00,31.5,31.0,29.92,WNW,284,0.0,0.0,96,0.00,,,0.00,weatherlink.com 1.10,2013-01-16 18:43:00,
2013-01-16 08:58:00,31.5,31.0,29.91,WNW,284,0.0,0.0,96,0.00,,,0.00,weatherlink.com 1.10,2013-01-16 18:58:00,
2013-01-16 09:13:00,31.4,30.0,29.91,WNW,284,0.0,0.0,96,0.00,,,0.00,weatherlink.com 1.10,2013-01-16 19:13:00,
2013-01-16 09:28:00,31.2,30.0,29.90,WNW,284,0.0,0.0,96,0.00,,,0.00,weatherlink.com 1.10,2013-01-16 19:28:00,
2013-01-16 09:43:00,31.2,30.0,29.90,WNW,284,0.0,0.0,96,0.00,,,0.00,weatherlink.com 1.10,2013-01-16 19:43:00,
2013-01-16 09:58:00,31.0,30.0,29.90,WNW,284,0.0,0.0,96,0.00,,,0.00,weatherlink.com 1.10,2013-01-16 19:58:00,
2013-01-16 10:13:00,30.7,30.0,29.89,WNW,284,0.0,0.0,95,0.00,,,0.00,weatherlink.com 1.10,2013-01-16 20:13:00,
2013-01-16 10:28:00,30.5,29.0,29.89,WNW,284,0.0,0.0,95,0.00,,,0.00,weatherlink.com 1.10,2013-01-16 20:28:00,
2013-01-16 10:43:00,30.5,29.0,29.89,WNW,284,0.0,0.0,95,0.00,,,0.00,weatherlink.com 1.10,2013-01-16 20:43:00,
2013-01-16 10:58:00,30.5,29.0,29.88,WNW,284,0.0,0.0,95,0.00,,,0.00,weatherlink.com 1.10,2013-01-16 20:58:00,
2013-01-16 11:13:00,30.6,29.0,29.88,WNW,284,0.0,0.0,95,0.00,,,0.00,weatherlink.com 1.10,2013-01-16 21:13:00,
2013-01-16 11:28:00,30.1,29.0,29.87,WNW,284,0.0,0.0,94,0.00,,,0.00,weatherlink.com 1.10,2013-01-16 21:28:00,
2013-01-16 11:43:00,30.1,29.0,29.87,West,275,0.0,0.0,94,0.00,,,0.00,weatherlink.com 1.10,2013-01-16 21:43:00,
2013-01-16 11:58:00,30.0,28.0,29.87,West,280,0.0,0.0,93,0.00,,,0.00,weatherlink.com 1.10,2013-01-16 21:58:00,
2013-01-16 12:13:00,29.9,28.0,29.86,West,271,0.0,0.0,93,0.00,,,0.00,weatherlink.com 1.10,2013-01-16 22:13:00,
2013-01-16 12:28:00,29.7,28.0,29.85,West,270,0.0,0.0,93,0.00,,,0.00,weatherlink.com 1.10,2013-01-16 22:28:00,
2013-01-16 12:43:00,29.5,28.0,29.84,West,281,0.0,0.0,92,0.00,,,0.00,weatherlink.com 1.10,2013-01-16 22:43:00,
2013-01-16 12:58:00,29.4,27.0,29.84,West,281,0.0,0.0,92,0.00,,,0.00,weatherlink.com 1.10,2013-01-16 22:58:00,
2013-01-16 13:13:00,29.3,27.0,29.83,West,272,5.0,7.0,92,0.00,,,0.00,weatherlink.com 1.10,2013-01-16 23:13:00,
2013-01-16 13:28:00,29.2,27.0,29.82,West,275,4.0,8.0,92,0.00,,,0.00,weatherlink.com 1.10,2013-01-16 23:28:00,
2013-01-16 13:43:00,29.0,27.0,29.82,West,267,4.0,7.0,91,0.00,,,0.00,weatherlink.com 1.10,2013-01-16 23:43:00,
2013-01-16 13:58:00,28.9,27.0,29.81,WNW,285,2.0,7.0,91,0.00,,,0.00,weatherlink.com 1.10,2013-01-16 23:58:00,
2013-01-16 14:13:00,28.9,27.0,29.81,West,279,2.0,6.0,91,0.00,,,0.00,weatherlink.com 1.10,2013-01-17 00:13:00,
2013-01-16 14:28:00,29.0,27.0,29.80,West,267,4.0,6.0,91,0.00,,,0.00,weatherlink.com 1.10,2013-01-17 00:28:00,
2013-01-16 14:43:00,29.0,27.0,29.79,West,275,5.0,7.0,91,0.00,,,0.00,weatherlink.com 1.10,2013-01-17 00:43:00,
2013-01-16 14:58:00,28.9,27.0,29.79,West,259,6.0,9.0,91,0.00,,,0.00,weatherlink.com 1.10,2013-01-17 00:58:00,
2013-01-16 15:13:00,28.8,27.0,29.78,West,280,6.0,8.0,91,0.00,,,0.00,weatherlink.com 1.10,2013-01-17 01:13:00,
2013-01-16 15:28:00,28.7,26.0,29.78,West,275,6.0,9.0,91,0.00,,,0.00,weatherlink.com 1.10,2013-01-17 01:28:00,
2013-01-16 15:43:00,28.3,26.0,29.77,West,265,6.0,8.0,91,0.00,,,0.00,weatherlink.com 1.10,2013-01-17 01:43:00,
2013-01-16 15:59:00,28.3,26.0,29.77,WNW,284,4.0,10.0,91,0.00,,,0.00,weatherlink.com 1.10,2013-01-17 01:59:00,
2013-01-16 16:14:00,28.1,26.0,29.76,WNW,288,1.0,9.0,91,0.00,,,0.00,weatherlink.com 1.10,2013-01-17 02:14:00,
2013-01-16 16:29:00,28.1,26.0,29.76,WNW,299,5.0,10.0,91,0.00,,,0.00,weatherlink.com 1.10,2013-01-17 02:29:00,
2013-01-16 16:44:00,28.0,26.0,29.75,NW,321,6.0,10.0,91,0.00,,,0.00,weatherlink.com 1.10,2013-01-17 02:44:00,
2013-01-16 16:59:00,27.9,25.0,29.75,West,275,7.0,9.0,90,0.00,,,0.00,weatherlink.com 1.10,2013-01-17 02:59:00,
2013-01-16 17:14:00,28.1,26.0,29.74,NNW,343,4.0,7.0,90,0.00,,,0.00,weatherlink.com 1.10,2013-01-17 03:14:00,
2013-01-16 17:29:00,27.8,26.0,29.74,NNW,343,4.0,6.0,91,0.00,,,0.00,weatherlink.com 1.10,2013-01-17 03:29:00,
2013-01-16 17:44:00,27.8,26.0,29.73,NW,320,4.0,7.0,91,0.00,,,0.00,weatherlink.com 1.10,2013-01-17 03:44:00,
2013-01-16 17:59:00,27.9,26.0,29.73,WNW,288,5.0,8.0,91,0.00,,,0.00,weatherlink.com 1.10,2013-01-17 03:59:00,
2013-01-16 18:14:00,28.0,26.0,29.73,WNW,298,5.0,7.0,90,0.00,,,0.00,weatherlink.com 1.10,2013-01-17 04:14:00,
2013-01-16 18:29:00,28.0,26.0,29.72,North,355,4.0,9.0,90,0.00,,,0.00,weatherlink.com 1.10,2013-01-17 04:29:00,
2013-01-16 18:44:00,28.0,25.0,29.71,West,267,7.0,9.0,89,0.00,,,0.00,weatherlink.com 1.10,2013-01-17 04:44:00,
2013-01-16 18:59:00,28.1,25.0,29.71,WNW,291,4.0,10.0,89,0.00,,,0.00,weatherlink.com 1.10,2013-01-17 04:59:00,
2013-01-16 19:14:00,28.2,25.0,29.70,West,280,4.0,10.0,87,0.00,,,0.00,weatherlink.com 1.10,2013-01-17 05:14:00,
2013-01-16 19:29:00,28.3,25.0,29.70,West,268,5.0,6.0,87,0.00,,,0.00,weatherlink.com 1.10,2013-01-17 05:29:00,
2013-01-16 19:44:00,28.5,25.0,29.69,WNW,299,5.0,10.0,88,0.00,,,0.00,weatherlink.com 1.10,2013-01-17 05:44:00,
2013-01-16 19:59:00,28.2,25.0,29.68,NW,309,2.0,7.0,88,0.00,,,0.00,weatherlink.com 1.10,2013-01-17 05:59:00,
2013-01-16 20:14:00,28.1,25.0,29.68,NW,319,3.0,5.0,89,0.00,,,0.00,weatherlink.com 1.10,2013-01-17 06:14:00,
2013-01-16 20:29:00,28.3,25.0,29.67,West,280,2.0,6.0,87,0.00,,,0.00,weatherlink.com 1.10,2013-01-17 06:29:00,
2013-01-16 20:44:00,28.5,25.0,29.67,South,181,5.0,10.0,86,0.00,,,0.00,weatherlink.com 1.10,2013-01-17 06:44:00,
2013-01-16 20:59:00,28.1,25.0,29.68,WSW,241,6.0,9.0,87,0.00,,,0.00,weatherlink.com 1.10,2013-01-17 06:59:00,
2013-01-16 21:14:00,27.4,24.0,29.67,SSW,202,6.0,10.0,87,0.00,,,0.00,weatherlink.com 1.10,2013-01-17 07:14:00,
2013-01-16 21:29:00,27.4,24.0,29.67,SSW,205,5.0,11.0,88,0.00,,,0.00,weatherlink.com 1.10,2013-01-17 07:29:00,
2013-01-16 21:44:00,27.0,24.0,29.66,SW,234,7.0,12.0,88,0.00,,,0.00,weatherlink.com 1.10,2013-01-17 07:44:00,
2013-01-16 21:59:00,26.6,23.0,29.66,SW,217,11.0,11.0,87,0.00,,,0.00,weatherlink.com 1.10,2013-01-17 07:59:00,
2013-01-16 22:14:00,26.4,23.0,29.66,SW,229,4.0,12.0,86,0.00,,,0.00,weatherlink.com 1.10,2013-01-17 08:14:00,
2013-01-16 22:29:00,26.2,23.0,29.65,WSW,243,8.0,11.0,87,0.00,,,0.00,weatherlink.com 1.10,2013-01-17 08:29:00,
2013-01-16 22:44:00,25.7,22.0,29.65,SW,232,11.0,12.0,86,0.00,,,0.00,weatherlink.com 1.10,2013-01-17 08:44:00,
2013-01-16 23:00:00,25.6,22.0,29.65,SW,232,8.0,14.0,86,0.00,,,0.00,weatherlink.com 1.10,2013-01-17 09:00:00,
2013-01-16 23:15:00,25.4,22.0,29.65,SW,226,7.0,11.0,85,0.00,,,0.00,weatherlink.com 1.10,2013-01-17 09:15:00,
2013-01-16 23:30:00,25.2,22.0,29.65,SSW,205,8.0,11.0,86,0.00,,,0.00,weatherlink.com 1.10,2013-01-17 09:30:00,
2013-01-16 23:45:00,25.3,22.0,29.65,WSW,240,6.0,13.0,86,0.00,,,0.00,weatherlink.com 1.10,2013-01-17 09:45:00,